Regional Weather Roundup
Issued by NWS

Home | Current Version | Previous Version | Graphics & Text | Print | Product List | Glossary On
Versions: 1 2 3 4 5 6 7 8 9 10 11 12 13 14 15 16 17 18 19 20 21 22 23 24 25 26 27 28 29 30 31 32 33 34 35 36 37 38 39 40 41 42 43 44 45 46 47 48 49 50
175
ASUS43 KFSD 050510
RWRSD

WEATHER ROUNDUP FOR SOUTH DAKOTA
NATIONAL WEATHER SERVICE SIOUX FALLS SD
1100 PM CST SUN DEC 04 2016

NOTE: "FAIR" INDICATES FEW OR NO CLOUDS BELOW 12,000 FEET WITH NO
SIGNIFICANT WEATHER AND/OR OBSTRUCTIONS TO VISIBILITY.


SDZ001>005-009-010-012>017-050600-
NORTHWEST AND NORTH CENTRAL SOUTH DAKOTA

CITY           SKY/WX    TMP DP  RH WIND       PRES   REMARKS
BUFFALO          N/A     29  21  72 SE8       29.45F WCI  21
FAITH            N/A     29  22  75 SE15      29.55F WCI  18
MOBRIDGE       CLOUDY    31  25  78 SE10      29.61S WCI  22
$$

SDZ012>016-024>037-041>051-057-063-072>074-050600-
SOUTHWEST AND SOUTH CENTRAL SOUTH DAKOTA

CITY           SKY/WX    TMP DP  RH WIND       PRES   REMARKS
RAPID CTY ARPT PTCLDY    34  18  52 SE6       29.53F WCI  29
PIERRE         MOCLDY    32  24  72 SE9       29.63F WCI  24
CUSTER         CLOUDY    35  18  49 W9        29.56F WCI  28
ELLSWORTH AFB  PTCLDY    35  19  53 S7        29.51F WCI  29
PHILIP         PTCLDY    32  25  75 E6        29.58F WCI  26
PINE RIDGE     PTCLDY    31  23  72 W5        29.60F WCI  26
SPEARFISH      CLOUDY    41  23  48 SW15      29.51F
WINNER         FAIR      41  21  44 S16       29.64F
$$

SDZ004>011-016>023-039-040-050600-
NORTHEAST SOUTH DAKOTA

CITY           SKY/WX    TMP DP  RH WIND       PRES   REMARKS
ABERDEEN       CLEAR     25  23  92 S7        29.70S WCI  17
WATERTOWN      CLEAR     27  25  92 S5        29.71F WCI  22
BROOKINGS      CLEAR     29  28  96 S9        29.74S WCI  20
SISSETON         N/A     33  27  78 CALM      29.70S
$$

SDZ017-020-022-023-036>040-048>070-050600-
SOUTHEAST SOUTH DAKOTA

CITY           SKY/WX    TMP DP  RH WIND       PRES   REMARKS
SIOUX FALLS    PTCLDY    33  29  85 S5        29.77F WCI  29
HURON          CLOUDY    30  27  88 S8        29.72S WCI  22
CHAMBERLAIN    CLOUDY    35  30  80 SE8       29.67F WCI  29
MITCHELL       PTCLDY    32  28  85 S9        29.75S WCI  24
YANKTON        CLEAR     30  25  80 SE3       29.78S
$$

ABBREVIATIONS USED IN REMARKS
   TC - TEMPERATURE IN CELSIUS
  WCI - WIND CHILL INDEX
   HX - HEAT INDEX
  VSB - VISIBILITY





USA.gov is the U.S. government's official web portal to all federal, state and local government web resources and services.